Location: Newark
(43.9494°N, 6.8108°E)
Time: 16:39:39
(UTC+00:00)

SR - All Passes

Search period start: 15 October 2019 00:00
Search period end: 25 October 2019 00:00
Orbit: 575 x 881 km, 66.7° (Epoch: 15 October)

Date Brightness Start Highest point End Pass type
(mag) Time Alt. Az. Time Alt. Az. Time Alt. Az.
15 Oct - 00:56:26 10° WNW 00:59:47 17° NW 01:03:19 10° N visible
15 Oct - 06:09:25 10° NNW 06:14:07 24° NE 06:18:52 10° E daylight
15 Oct - 07:50:57 10° NW 07:56:52 78° WSW 08:02:46 10° SSE daylight
15 Oct - 09:35:39 10° WNW 09:38:04 13° WSW 09:40:29 10° SW daylight
15 Oct - 22:22:20 10° SSW 22:27:05 55° ESE 22:32:19 10° NE night (unlit)
16 Oct - 00:05:17 10° W 00:09:34 26° NW 00:14:10 10° NNE visible
16 Oct - 05:20:19 10° N 05:23:51 16° NNE 05:27:25 10° ENE visible
16 Oct - 07:01:19 10° NNW 07:07:10 61° NE 07:13:00 10° SE daylight
16 Oct - 08:44:13 10° NW 08:48:53 25° WSW 08:53:32 10° SSW daylight
16 Oct - 21:33:37 10° SSE 21:37:43 28° ESE 21:42:11 10° NE night (unlit)
16 Oct - 23:14:46 10° WSW 23:19:33 44° NW 23:24:47 10° NNE night (unlit)
17 Oct - 01:01:14 10° NW 01:03:13 12° NNW 01:05:15 10° N visible
17 Oct - 04:31:48 10° N 04:33:24 11° NNE 04:35:01 10° NE visible
17 Oct - 06:11:51 10° NNW 06:17:16 36° NE 06:22:43 10° ESE daylight
17 Oct - 07:53:55 10° NW 07:59:32 45° WSW 08:05:05 10° S daylight
17 Oct - 20:46:08 10° SE 20:48:34 14° ESE 20:51:05 10° ENE night (unlit)
17 Oct - 22:24:48 10° SW 22:29:45 82° WNW 22:35:14 10° NNE night (unlit)
18 Oct - 00:09:19 10° WNW 00:12:49 18° NW 00:16:30 10° N visible
18 Oct - 05:22:33 10° NNW 05:27:11 23° NE 05:31:51 10° E visible
18 Oct - 07:04:03 10° NNW 07:09:59 82° WSW 07:15:53 10° SSE daylight
18 Oct - 08:48:29 10° WNW 08:51:13 13° WSW 08:53:57 10° SW daylight
18 Oct - 21:35:26 10° S 21:40:11 52° ESE 21:45:25 10° NE night (unlit)
18 Oct - 23:18:15 10° WSW 23:22:37 28° NW 23:27:19 10° NNE night (unlit)
19 Oct - 04:33:28 10° N 04:36:53 16° NNE 04:40:21 10° ENE visible
19 Oct - 06:14:25 10° NNW 06:20:16 58° NE 06:26:05 10° SE daylight
19 Oct - 07:57:14 10° NW 08:02:02 26° WSW 08:06:47 10° SSW daylight
19 Oct - 20:46:47 10° SSE 20:50:50 26° ESE 20:55:13 10° NE night (unlit)
19 Oct - 22:27:46 10° SW 22:32:37 47° NW 22:37:56 10° NNE night (unlit)
20 Oct - 00:14:00 10° NW 00:16:14 12° NNW 00:18:31 10° N visible
20 Oct - 03:45:04 10° N 03:46:26 11° NNE 03:47:47 10° NE visible
20 Oct - 05:24:58 10° NNW 05:30:21 35° NE 05:35:44 10° ESE visible
20 Oct - 07:07:00 10° NW 07:12:40 48° WSW 07:18:15 10° S daylight
20 Oct - 19:59:30 10° SE 20:01:42 13° ESE 20:03:58 10° ENE night (unlit)
20 Oct - 21:37:52 10° SSW 21:42:50 86° WNW 21:48:21 10° NNE night (unlit)
20 Oct - 23:22:13 10° W 23:25:51 19° NW 23:29:41 10° N night (unlit)
21 Oct - 04:35:41 10° N 04:40:15 23° NE 04:44:49 10° E visible
21 Oct - 06:17:09 10° NNW 06:23:06 86° WSW 06:29:00 10° SSE daylight
21 Oct - 08:01:21 10° WNW 08:04:23 14° WSW 08:07:22 10° SW daylight
21 Oct - 20:48:33 10° S 20:53:17 49° ESE 20:58:31 10° NE night (unlit)
21 Oct - 22:31:12 10° WSW 22:35:40 29° NW 22:40:28 10° NNE night (unlit)
22 Oct - 03:46:37 10° N 03:49:56 15° NNE 03:53:16 10° ENE visible
22 Oct - 05:27:32 10° NNW 05:33:22 56° NE 05:39:08 10° SE visible
22 Oct - 07:10:16 10° NW 07:15:10 27° WSW 07:20:01 10° SSW daylight
22 Oct - 19:59:58 10° SSE 20:03:58 25° ESE 20:08:16 10° NE night (unlit)
22 Oct - 21:40:47 10° SW 21:45:41 49° NW 21:51:04 10° NNE night (unlit)
22 Oct - 23:26:48 10° NW 23:29:15 13° NNW 23:31:46 10° N night (unlit)
23 Oct - 02:58:22 10° NNE 02:59:27 10° NNE 03:00:31 10° NE visible
23 Oct - 04:38:06 10° NNW 04:43:25 34° NE 04:48:44 10° ESE visible
23 Oct - 06:20:04 10° NW 06:25:47 50° WSW 06:31:24 10° S daylight
23 Oct - 19:12:54 10° ESE 19:14:50 12° E 19:16:49 10° ENE night (unlit)
23 Oct - 20:50:55 10° SSW 20:55:55 89° ESE 21:01:27 10° NNE night (unlit)
23 Oct - 22:35:07 10° W 22:38:53 19° NW 22:42:52 10° N night (unlit)
24 Oct - 03:48:49 10° N 03:53:17 22° NE 03:57:46 10° E visible
24 Oct - 05:30:14 10° NNW 05:36:13 89° SW 05:42:06 10° SSE visible
24 Oct - 07:14:15 10° WNW 07:17:31 15° WSW 07:20:45 10° SW daylight
24 Oct - 20:01:39 10° S 20:06:24 46° ESE 20:11:36 10° NE night (unlit)
24 Oct - 21:44:10 10° WSW 21:48:43 30° NW 21:53:37 10° NNE night (unlit)
